Find Starlink 4714

NORAD ID: 53704 Int'l Des: 2022-107 Owner: SPXS Country: US Constellation: starlink operational
LEOCIRCULAR

現在のビュー

3D地球を読み込み中...

About Starlink 4714

Starlink 4714 (NORAD 53704) is a starlink constellation satellite (v1.5) launched Sep 5, 2022 by SPXS of US. It operates in LEO, CIRCULAR orbit with a mass of 305.00 kg.

次回通過

Passes for default location (London). Set your location on the main map for personalized predictions.

高度履歴

Loading altitude history...

軌道要素

1 53704U 22107E 26263.90837682 .00000446 00000-0 26138-4 0 9991
2 53704 53.1599 73.8811 0001245 88.3796 271.7348 15.31703885224353
Epoch: Sep 20, 2026 • Age: 8 hours

現在のステータス

高度 471.0 km
遠地点 / 近地点 N/A
速度 7.63 km/s
衛星直下点 5.23°N, 8.74°W
打ち上げ日 Sep 5, 2022
運用期間 4 years
タイプ internet

技術仕様

分類 Payload
質量 305.00 kg
乾燥質量 290.00 kg
長さ 0.20 m
スパン 9.00 m
形状 ? Box + pan
製造者 SPXS
バスタイプ Starlink
フェーズステータス In Orbit
所有者/国 SPXS/US

Most Searched